Portada
METAR-TAF:

METAR-TAF

Aeropuertos :

Germiston, Sudáfrica

latitud: 26-14-33S, longitud: 028-09-04E, altitud: 1671 m

Observación

El informe se hizo hace 9 horas y 9 minutos, a las 05:00 UTC
Viento 4 kt con dirección variable
Temperatura 17°C
Humedad 39%
Presión 1024 hPa
Visibilidad 10 km o más
sin nubes por debajo de 1500 m y sin presencia de cumulonimbus.

METAR: FAGM 230500Z VRB04KT CAVOK 17/03 Q1024

Hora: 16:09 (14:09 UTC)


TAF: falta

Observaciones y pronósticos meteorológicos de más de 4000 aeropuertos (mensajes METAR y TAF).

Los puntos amarillos y rojos representan las estaciones disponibles.

Ponga el ratón en el punto deseado para ver el nombre de la estación.

Haga clic para ver las observaciones y los pronósticos meteorológicos.

Para cambiar el mapa : haga clic en los botones verdes con una cruz de color negro para hacer un zoom, en el botón verde con un guión para alejar o en las flechas verdes para mapas adyacentes.


METAR-TAF: